Simultaneous Nadir Overpasses (SNOs) Predictions

Prediction of SNOs between METOP-B and NOAA-19 Satellite Orbit:

Table of predicted SNOs for the next 14.0 days since TLE Epoch: 8/11/2013
Index Date (METOP-B) Time (METOP-B) Lat,Lon (METOP-B) SZA (METOP-B ) Date (NOAA-19) Time (NOAA-19) Lat,Lon (NOAA-19) SZA (NOAA-19 ) Distance(km) Time Diff (sec)
1 08/13/2013 07:17:02 73.53, 64.67 59.00 08/13/2013 07:15:48 73.54, 64.25 59.04 13.38 74
2 08/13/2013 08:07:47 -73.40,-128.29 121.11 08/13/2013 08:06:48 -73.42,-128.24 121.08 2.73 59
3 08/13/2013 08:58:25 73.41, 39.06 58.91 08/13/2013 08:57:49 73.42, 39.01 58.93 2.07 36
4 08/13/2013 09:49:08 -73.38,-153.67 121.10 08/13/2013 09:48:51 -73.40,-153.71 121.08 2.37 17
5 08/13/2013 10:39:48 73.34, 13.56 58.87 08/13/2013 10:39:52 73.35, 13.66 58.88 3.45 4
6 08/13/2013 11:30:30 -73.36,-179.06 121.10 08/13/2013 11:30:54 -73.33,-179.06 121.14 3.50 24
7 08/13/2013 12:21:10 73.32, -11.83 58.87 08/13/2013 12:21:56 73.33, -11.81 58.87 1.32 46
8 08/13/2013 13:11:53 -73.29, 155.45 121.14 08/13/2013 13:12:58 -73.31, 155.47 121.14 2.06 65
9 08/13/2013 14:02:42 72.79, -38.30 58.42 08/13/2013 14:03:50 72.81, -36.18 58.34 69.72 68
10 08/23/2013 08:51:26 73.51, 41.04 62.22 08/23/2013 08:50:12 73.56, 40.67 62.29 12.44 74
11 08/23/2013 09:42:10 -73.45,-151.79 117.84 08/23/2013 09:41:10 -73.46,-151.86 117.81 2.75 60
12 08/23/2013 10:32:49 73.44, 15.54 62.18 08/23/2013 10:32:14 73.44, 15.43 62.18 3.41 35
13 08/23/2013 11:23:33 -73.38,-177.29 117.88 08/23/2013 11:23:13 -73.39,-177.22 117.86 3.08 20
14 08/23/2013 12:14:12 73.37, -9.96 62.14 08/23/2013 12:14:17 73.37, -9.92 62.13 1.37 5
15 08/23/2013 13:04:55 -73.36, 157.32 117.87 08/23/2013 13:05:17 -73.37, 157.31 117.86 2.04 22
16 08/23/2013 13:55:34 73.35, -35.35 62.14 08/23/2013 13:56:21 73.35, -35.39 62.13 1.67 47
17 08/23/2013 14:46:17 -73.34, 131.94 117.87 08/23/2013 14:47:20 -73.31, 131.95 117.91 3.45 63
18 08/23/2013 15:37:07 72.78, -61.93 61.65 08/23/2013 15:38:15 72.83, -59.76 61.60 71.49 68




NCC Satellite Simultaneous Nadir Overpasses (SNOs) Prediction Service
